DCS642 ETSI-EDAZ

Flight info

Callsign DCS642
Flight time 0h 54m
Altitude 26000
Route NIMDI Y103 EXITI/N0375F290 DCT BOLBO
Aircraft P180/L-SBDFGM3RWXY/LB1

Departure

Time 2026-04-30 08:42
Airport Ingolstadt Manching Airport (ETSI)

Arrival

Time 2026-04-30 09:37
Airport Schönhagen Airfield (EDAZ)
Time Latitude Longitude Altitude Speed Heading
2026-04-30 08:24 48.71766 11.54352 1188 ft 0 kts 159°
2026-04-30 08:35 48.71762 11.54354 1188 ft 1 kts 159°
2026-04-30 08:36 48.71746 11.54363 1188 ft 4 kts 160°
2026-04-30 08:36 48.71720 11.54346 1188 ft 6 kts 246°
2026-04-30 08:36 48.71705 11.54286 1188 ft 7 kts 249°
2026-04-30 08:36 48.71683 11.54203 1188 ft 10 kts 248°
2026-04-30 08:37 48.71653 11.54099 1188 ft 11 kts 228°
2026-04-30 08:37 48.71577 11.54102 1188 ft 12 kts 157°
2026-04-30 08:37 48.71495 11.54152 1188 ft 13 kts 159°
2026-04-30 08:37 48.71417 11.54197 1188 ft 12 kts 156°
2026-04-30 08:38 48.71363 11.54155 1188 ft 11 kts 248°
2026-04-30 08:38 48.71331 11.54034 1188 ft 14 kts 247°
2026-04-30 08:38 48.71294 11.53907 1188 ft 10 kts 228°
2026-04-30 08:38 48.71224 11.53916 1188 ft 11 kts 153°
2026-04-30 08:39 48.71148 11.53924 1188 ft 13 kts 223°
2026-04-30 08:39 48.71110 11.53793 1189 ft 15 kts 248°
2026-04-30 08:39 48.71069 11.53637 1188 ft 17 kts 248°
2026-04-30 08:39 48.71021 11.53457 1188 ft 20 kts 249°
2026-04-30 08:40 48.70968 11.53256 1188 ft 22 kts 248°
2026-04-30 08:40 48.70909 11.53032 1188 ft 24 kts 248°
2026-04-30 08:40 48.70846 11.52791 1188 ft 25 kts 249°
2026-04-30 08:40 48.70784 11.52557 1188 ft 18 kts 247°
2026-04-30 08:41 48.70725 11.52472 1187 ft 16 kts 166°
2026-04-30 08:41 48.70645 11.52516 1187 ft 6 kts 160°
2026-04-30 08:41 48.70640 11.52559 1187 ft 0 kts 64°
2026-04-30 08:42 48.70685 11.52732 1187 ft 56 kts 69°
2026-04-30 08:42 48.70916 11.53604 1192 ft 115 kts 70°
2026-04-30 08:42 48.71239 11.54776 1584 ft 127 kts 71°
2026-04-30 08:42 48.71583 11.55996 2273 ft 126 kts 71°
2026-04-30 08:43 48.71938 11.57261 2909 ft 132 kts 70°
2026-04-30 08:43 48.72354 11.58644 3454 ft 151 kts 68°
2026-04-30 08:43 48.72809 11.60095 4251 ft 153 kts 68°
2026-04-30 08:43 48.73517 11.61336 5042 ft 165 kts 40°
2026-04-30 08:44 48.74526 11.62178 5768 ft 175 kts 23°
2026-04-30 08:44 48.75772 11.62410 6535 ft 182 kts 13°
2026-04-30 08:44 48.77019 11.62711 7322 ft 181 kts 15°
2026-04-30 08:44 48.78281 11.62983 8053 ft 183 kts 13°
2026-04-30 08:45 48.79530 11.63222 8808 ft 182 kts 13°
2026-04-30 08:45 48.80805 11.63112 9501 ft 191 kts 347°
2026-04-30 08:45 48.82049 11.62378 10218 ft 191 kts 345°
2026-04-30 08:45 48.83312 11.61764 10858 ft 191 kts 347°
2026-04-30 08:46 48.84563 11.61130 11429 ft 192 kts 347°
2026-04-30 08:46 48.85829 11.60469 12026 ft 193 kts 347°
2026-04-30 08:46 48.87102 11.59809 12617 ft 193 kts 348°
2026-04-30 08:46 48.88376 11.59157 13191 ft 195 kts 347°
2026-04-30 08:47 48.89671 11.58488 13715 ft 198 kts 347°
2026-04-30 08:47 48.90974 11.57809 14312 ft 199 kts 346°
2026-04-30 08:47 48.92288 11.57130 14825 ft 200 kts 347°
2026-04-30 08:47 48.93607 11.56449 15371 ft 200 kts 347°
2026-04-30 08:48 48.94930 11.55760 15884 ft 202 kts 347°
2026-04-30 08:48 48.96285 11.55058 16402 ft 203 kts 347°
2026-04-30 08:48 48.97624 11.54362 16906 ft 204 kts 347°
2026-04-30 08:48 48.98970 11.53664 17404 ft 205 kts 348°
2026-04-30 08:49 49.00302 11.52974 17876 ft 206 kts 348°
2026-04-30 08:49 49.01659 11.52266 18363 ft 207 kts 348°
2026-04-30 08:49 49.03025 11.51560 18808 ft 208 kts 348°
2026-04-30 08:49 49.04394 11.50843 19179 ft 209 kts 349°
2026-04-30 08:50 49.05774 11.50128 19557 ft 210 kts 349°
2026-04-30 08:50 49.07157 11.49404 19944 ft 211 kts 349°
2026-04-30 08:50 49.08549 11.48682 20332 ft 211 kts 349°
2026-04-30 08:50 49.09943 11.47953 20728 ft 212 kts 349°
2026-04-30 08:51 49.11322 11.47235 21135 ft 213 kts 349°
2026-04-30 08:51 49.12727 11.46500 21556 ft 214 kts 349°
2026-04-30 08:51 49.14140 11.45760 21980 ft 215 kts 349°
2026-04-30 08:51 49.15558 11.45020 22406 ft 216 kts 350°
2026-04-30 08:52 49.16982 11.44277 22845 ft 217 kts 350°
2026-04-30 08:52 49.18413 11.43525 23292 ft 218 kts 350°
2026-04-30 08:52 49.19847 11.42773 23765 ft 218 kts 351°
2026-04-30 08:52 49.21285 11.42018 24183 ft 219 kts 351°
2026-04-30 08:53 49.22730 11.41263 24574 ft 220 kts 351°
2026-04-30 08:53 49.24195 11.40673 24961 ft 213 kts
2026-04-30 08:53 49.25639 11.40697 25354 ft 211 kts
2026-04-30 08:53 49.27115 11.40684 25761 ft 213 kts
2026-04-30 08:54 49.28600 11.40671 26172 ft 214 kts
2026-04-30 08:54 49.30091 11.40676 26601 ft 215 kts
2026-04-30 08:54 49.31594 11.40680 27027 ft 216 kts
2026-04-30 08:54 49.33105 11.40685 27473 ft 218 kts
2026-04-30 08:55 49.34625 11.40686 27918 ft 219 kts
2026-04-30 08:55 49.36157 11.40691 28360 ft 221 kts
2026-04-30 08:55 49.37692 11.40690 28875 ft 219 kts
2026-04-30 08:55 49.39214 11.40691 29386 ft 219 kts
2026-04-30 08:56 49.40789 11.40703 29443 ft 235 kts
2026-04-30 08:56 49.42482 11.40717 29457 ft 252 kts
2026-04-30 08:56 49.44296 11.40713 29460 ft 268 kts
2026-04-30 08:56 49.46214 11.40714 29461 ft 283 kts
2026-04-30 08:57 49.48226 11.40717 29458 ft 295 kts
2026-04-30 08:57 49.50320 11.40717 29464 ft 306 kts
2026-04-30 08:57 49.52456 11.40726 29464 ft 316 kts
2026-04-30 08:58 49.56869 11.41705 29458 ft 325 kts 19°
2026-04-30 08:58 49.61102 11.44337 29462 ft 334 kts 29°
2026-04-30 08:59 49.65352 11.47460 29447 ft 342 kts 27°
2026-04-30 08:59 49.69663 11.50706 29455 ft 347 kts 28°
2026-04-30 09:00 49.74078 11.53967 29455 ft 351 kts 28°
2026-04-30 09:00 49.78517 11.57311 29458 ft 353 kts 28°
2026-04-30 09:01 49.82871 11.60560 29461 ft 354 kts 28°
2026-04-30 09:01 49.87305 11.63890 29468 ft 354 kts 28°
2026-04-30 09:02 49.93960 11.68896 29474 ft 354 kts 28°
2026-04-30 09:02 49.98362 11.72228 29471 ft 354 kts 28°
2026-04-30 09:03 50.02800 11.75573 29475 ft 354 kts 28°
2026-04-30 09:03 50.07228 11.78930 29468 ft 354 kts 28°
2026-04-30 09:04 50.11640 11.82286 29463 ft 352 kts 28°
2026-04-30 09:04 50.16010 11.85602 29459 ft 351 kts 28°
2026-04-30 09:05 50.20395 11.88948 29459 ft 351 kts 28°
2026-04-30 09:05 50.24781 11.92303 29459 ft 351 kts 28°
2026-04-30 09:06 50.29164 11.95655 29459 ft 350 kts 28°
2026-04-30 09:06 50.33533 11.99006 29460 ft 349 kts 29°
2026-04-30 09:07 50.37882 12.02348 29469 ft 349 kts 28°
2026-04-30 09:07 50.42250 12.05714 29475 ft 349 kts 29°
2026-04-30 09:08 50.46633 12.09100 29482 ft 349 kts 29°
2026-04-30 09:08 50.50986 12.12466 29490 ft 349 kts 29°
2026-04-30 09:09 50.55335 12.15829 29503 ft 348 kts 29°
2026-04-30 09:09 50.59654 12.19195 29504 ft 348 kts 29°
2026-04-30 09:10 50.63972 12.22548 29503 ft 348 kts 29°
2026-04-30 09:10 50.68298 12.25919 29504 ft 341 kts 29°
2026-04-30 09:11 50.72461 12.29174 29496 ft 325 kts 29°
2026-04-30 09:11 50.76439 12.32293 29498 ft 319 kts 29°
2026-04-30 09:12 50.80398 12.35397 29498 ft 316 kts 29°
2026-04-30 09:12 50.84334 12.38490 29302 ft 319 kts 29°
2026-04-30 09:13 50.86348 12.40076 28788 ft 328 kts 29°
2026-04-30 09:13 50.88407 12.41704 28200 ft 333 kts 29°
2026-04-30 09:13 50.90496 12.43349 27625 ft 337 kts 29°
2026-04-30 09:13 50.92603 12.45003 27052 ft 339 kts 29°
2026-04-30 09:14 50.94713 12.46679 26496 ft 339 kts 29°
2026-04-30 09:14 50.96798 12.48325 25961 ft 339 kts 28°
2026-04-30 09:14 50.98908 12.49988 25426 ft 338 kts 29°
2026-04-30 09:14 51.01004 12.51662 24903 ft 337 kts 29°
2026-04-30 09:15 51.03094 12.53321 24390 ft 335 kts 28°
2026-04-30 09:15 51.05175 12.54960 23835 ft 333 kts 29°
2026-04-30 09:15 51.07237 12.56607 23239 ft 331 kts 29°
2026-04-30 09:15 51.09287 12.58246 22649 ft 329 kts 29°
2026-04-30 09:16 51.11328 12.59861 22076 ft 327 kts 28°
2026-04-30 09:16 51.13356 12.61478 21501 ft 325 kts 29°
2026-04-30 09:16 51.15352 12.63080 20952 ft 323 kts 29°
2026-04-30 09:16 51.17375 12.64691 20404 ft 322 kts 28°
2026-04-30 09:17 51.19370 12.66288 19869 ft 320 kts 29°
2026-04-30 09:17 51.21357 12.67878 19345 ft 319 kts 28°
2026-04-30 09:17 51.23309 12.69442 18833 ft 318 kts 29°
2026-04-30 09:17 51.25280 12.71023 18256 ft 317 kts 28°
2026-04-30 09:18 51.27245 12.72600 17658 ft 315 kts 29°
2026-04-30 09:18 51.29202 12.74175 17094 ft 314 kts 29°
2026-04-30 09:18 51.31149 12.75738 16587 ft 311 kts 29°
2026-04-30 09:18 51.33067 12.77285 16179 ft 307 kts 29°
2026-04-30 09:19 51.34963 12.78814 15771 ft 303 kts 29°
2026-04-30 09:19 51.36836 12.80321 15378 ft 300 kts 29°
2026-04-30 09:19 51.38669 12.81804 14989 ft 298 kts 29°
2026-04-30 09:19 51.40517 12.83292 14596 ft 297 kts 29°
2026-04-30 09:20 51.42354 12.84783 14190 ft 295 kts 30°
2026-04-30 09:20 51.44179 12.86265 13788 ft 293 kts 29°
2026-04-30 09:20 51.45995 12.87725 13401 ft 291 kts 29°
2026-04-30 09:20 51.47794 12.89194 13019 ft 290 kts 30°
2026-04-30 09:21 51.49590 12.90653 12643 ft 289 kts 29°
2026-04-30 09:21 51.51378 12.92098 12266 ft 288 kts 29°
2026-04-30 09:21 51.53135 12.93537 11894 ft 287 kts 29°
2026-04-30 09:21 51.54914 12.94980 11517 ft 286 kts 29°
2026-04-30 09:22 51.56689 12.96419 11136 ft 286 kts 29°
2026-04-30 09:22 51.58461 12.97875 10759 ft 285 kts 29°
2026-04-30 09:22 51.60225 12.99314 10385 ft 282 kts 29°
2026-04-30 09:22 51.61960 13.00718 9996 ft 276 kts 29°
2026-04-30 09:23 51.63658 13.02110 9638 ft 272 kts 29°
2026-04-30 09:23 51.65330 13.03486 9279 ft 268 kts 29°
2026-04-30 09:23 51.66986 13.04834 8923 ft 265 kts 29°
2026-04-30 09:23 51.68602 13.06161 8580 ft 263 kts 30°
2026-04-30 09:24 51.70228 13.07502 8233 ft 262 kts 30°
2026-04-30 09:24 51.71850 13.08828 7758 ft 263 kts 30°
2026-04-30 09:24 51.73448 13.10132 7128 ft 249 kts 30°
2026-04-30 09:24 51.74946 13.11368 6756 ft 241 kts 30°
2026-04-30 09:25 51.76437 13.12607 6426 ft 242 kts 30°
2026-04-30 09:25 51.78029 13.13524 6105 ft 250 kts 11°
2026-04-30 09:25 51.79788 13.13348 5779 ft 258 kts 352°
2026-04-30 09:25 51.81456 13.12219 5445 ft 266 kts 329°
2026-04-30 09:26 51.82817 13.10222 5105 ft 268 kts 319°
2026-04-30 09:26 51.84187 13.08211 4752 ft 263 kts 322°
2026-04-30 09:26 51.85581 13.06333 4409 ft 259 kts 322°
2026-04-30 09:26 51.86923 13.04389 4069 ft 258 kts 319°
2026-04-30 09:27 51.88219 13.02406 3748 ft 255 kts 319°
2026-04-30 09:27 51.89553 13.00546 3425 ft 251 kts 325°
2026-04-30 09:27 51.91147 12.99542 3090 ft 247 kts 355°
2026-04-30 09:27 51.92816 12.99812 3015 ft 238 kts 15°
2026-04-30 09:28 51.94254 13.01107 2999 ft 241 kts 42°
2026-04-30 09:28 51.95395 13.03131 2996 ft 245 kts 48°
2026-04-30 09:28 51.96561 13.05115 2997 ft 247 kts 45°
2026-04-30 09:28 51.97768 13.07106 3006 ft 248 kts 46°
2026-04-30 09:29 51.98933 13.09179 3007 ft 249 kts 48°
2026-04-30 09:29 52.00092 13.11263 3004 ft 248 kts 47°
2026-04-30 09:29 52.01282 13.13298 3006 ft 249 kts 45°
2026-04-30 09:29 52.02485 13.15317 3003 ft 249 kts 46°
2026-04-30 09:30 52.03655 13.17386 3001 ft 248 kts 47°
2026-04-30 09:30 52.04972 13.19173 2993 ft 248 kts 30°
2026-04-30 09:30 52.06520 13.20397 2995 ft 247 kts 26°
2026-04-30 09:30 52.07989 13.21774 2994 ft 247 kts 33°
2026-04-30 09:31 52.09429 13.23305 2990 ft 247 kts 31°
2026-04-30 09:31 52.10930 13.24677 2992 ft 247 kts 27°
2026-04-30 09:31 52.12436 13.26023 2993 ft 247 kts 30°
2026-04-30 09:31 52.13844 13.27541 2893 ft 237 kts 42°
2026-04-30 09:32 52.14661 13.29786 2729 ft 230 kts 68°
2026-04-30 09:32 52.15279 13.32150 2546 ft 225 kts 62°
2026-04-30 09:32 52.16014 13.34352 2367 ft 222 kts 60°
2026-04-30 09:32 52.16704 13.36587 2167 ft 221 kts 61°
2026-04-30 09:33 52.17757 13.38336 1996 ft 219 kts 24°
2026-04-30 09:33 52.19214 13.38676 1992 ft 210 kts 354°
2026-04-30 09:33 52.20615 13.38119 1989 ft 204 kts 344°
2026-04-30 09:33 52.21937 13.37384 1987 ft 200 kts 330°
2026-04-30 09:34 52.22835 13.35713 1991 ft 197 kts 298°
2026-04-30 09:34 52.23100 13.33595 1992 ft 186 kts 266°
2026-04-30 09:34 52.22816 13.31577 1983 ft 184 kts 256°
2026-04-30 09:34 52.22488 13.29504 1856 ft 193 kts 257°
2026-04-30 09:35 52.22159 13.27403 1707 ft 188 kts 257°
2026-04-30 09:35 52.21867 13.25502 1400 ft 154 kts 256°
2026-04-30 09:35 52.21623 13.23944 1174 ft 130 kts 258°
2026-04-30 09:35 52.21402 13.22541 998 ft 123 kts 258°
2026-04-30 09:36 52.21184 13.21227 819 ft 119 kts 256°
2026-04-30 09:36 52.20986 13.19934 609 ft 114 kts 259°
2026-04-30 09:36 52.20802 13.18694 445 ft 112 kts 256°
2026-04-30 09:36 52.20615 13.17470 257 ft 111 kts 257°
2026-04-30 09:37 52.20429 13.16264 134 ft 103 kts 256°
2026-04-30 09:37 52.20315 13.15529 135 ft 23 kts 256°